Location: Poughquag
(41.6090°N, 73.6820°W)
Time: 21:44:09
(UTC-05:00)

Explorer 11/Cluster Stage 4 - Visible Passes

Search period start: 18 January 2021 00:00
Search period end: 28 January 2021 00:00
Orbit: 467 x 1258 km, 28.8° (Epoch: 18 January)

Date Brightness Start Highest point End Pass type
(mag) Time Alt. Az. Time Alt. Az. Time Alt. Az.
18 Jan 9.3 05:01:16 11° SSW 05:01:16 11° SSW 05:02:16 10° SSW visible
25 Jan 9.2 20:14:33 10° SSW 20:14:42 11° SSW 20:14:42 11° SSW visible
26 Jan 8.9 20:03:36 10° SSW 20:04:27 13° SSW 20:04:27 13° SSW visible
27 Jan 8.7 19:52:43 10° SW 19:54:11 16° SSW 19:54:11 16° SSW visible
